Content
SEND FEEDBACK

Daily
Averages
Monthly
Summary
United Kingdom

NEWTOWNNARDS, NORTHERN IRELAND


Home > Europe > United Kingdom > Northern Ireland
Elevation: 112 feet     Latitude: 54 40N     Longitude: 005 35W

WEATHER
 
SELECT A DAY
Number of Records: 193,406;   Date Range: 7/1/96 - 10/18/14
 
SHARE

PRINT THIS DATA

[ ← Previous Day ]
WEATHER ALMANAC - MARCH 8, 2013
[ Next Day → ]
[ °C ]   °F
Weather ElementAverageHighLow
Temperature43 °F44.6 °F (9:20 am)41 °F (8:50 pm)
Dewpoint39.8 °F41 °F (10:20 am)39.2 °F (6:50 am)
Humidity88.4 %93 % (11:50 am)81 % (9:20 am)
Barometer29.46 in29.56 in (9:20 pm)29.39 in (6:50 am)
Wind Speed20.7 mph24.2 mph (7:20 am)
Wind Gust35.7 mph (7:20 am)
Weather ElementAverage
Visibility2.9 mi
Wind DirectionESE (103.2 °)

Weather ElementTotal
Precipitation---
Heating Degree Days22.2 (Base 65)
Averaged from 31 records on March 8, 2013
WEATHER CONDITIONS BREAKOUT
WIND DIRECTION BREAKOUT
WEATHER BY HOUR - MARCH 8, 2013
[ °C ]   °F
Local TimeTemperatureDewpointHumidityBarometerVisibilityWind DirectionWind SpeedGust SpeedPrecipitationEventsConditions
6:50 AM42.8 °F39.2 °F87 %29.39 in4.3 miEast (100°)21.9 mphRainLight Rain
7:20 AM42.8 °F39.2 °F87 %29.39 in3.1 miEast (100°)24.2 mph35.7 mphRainLight Rain
7:50 AM42.8 °F39.2 °F87 %29.39 in3.1 miEast (100°)23.0 mph35.7 mphRainLight Rain
8:20 AM42.8 °F39.2 °F87 %29.39 in3.1 miEast (100°)23.0 mph35.7 mphRainLight Rain
8:50 AM42.8 °F39.2 °F87 %29.39 in3.1 miEast (90°)18.4 mphHaze
9:20 AM44.6 °F39.2 °F81 %29.42 in2.5 miEast (90°)18.4 mph31.1 mphHaze
9:50 AM44.6 °F39.2 °F81 %29.42 in3.1 miEast (100°)21.9 mphHaze
10:20 AM44.6 °F41.0 °F87 %29.42 in2.5 miEast (100°)21.9 mph33.4 mphRainLight Rain
10:50 AM44.6 °F41.0 °F87 %29.42 in1.6 miESE (110°)21.9 mphRainLight Rain
11:20 AM44.6 °F41.0 °F87 %29.44 in1.9 miESE (110°)21.9 mphRainLight Rain
11:50 AM42.8 °F41.0 °F93 %29.44 in2.5 miEast (100°)20.7 mphRainLight Rain
12:20 PM44.6 °F41.0 °F87 %29.44 in3.1 miEast (100°)21.9 mphRainLight Rain
12:50 PM42.8 °F41.0 °F93 %29.44 in2.2 miESE (110°)23.0 mphRainLight Rain
1:20 PM42.8 °F41.0 °F93 %29.44 in2.5 miEast (100°)21.9 mphRainRain
1:50 PM42.8 °F41.0 °F93 %29.44 in3.1 miEast (100°)24.2 mphRainLight Rain
2:20 PM42.8 °F41.0 °F93 %29.44 in3.7 miESE (110°)24.2 mphRainLight Rain
2:50 PM42.8 °F41.0 °F93 %29.44 in2.5 miEast (100°)20.7 mphRainLight Rain
3:20 PM42.8 °F39.2 °F87 %29.47 in3.7 miEast (100°)18.4 mphRainLight Rain
3:50 PM42.8 °F41.0 °F93 %29.47 in3.7 miESE (110°)21.9 mphRainLight Rain
4:20 PM42.8 °F39.2 °F87 %29.47 in3.7 miEast (100°)19.6 mphRainLight Rain
4:50 PM42.8 °F39.2 °F87 %29.47 in5.0 miEast (100°)19.6 mphRainLight Rain
5:20 PM42.8 °F39.2 °F87 %29.47 in5.0 miEast (100°)20.7 mphRainLight Rain
5:50 PM42.8 °F39.2 °F87 %29.50 in3.1 miEast (100°)20.7 mph33.4 mphRainLight Rain
6:20 PM42.8 °F39.2 °F87 %29.50 in1.9 miEast (100°)20.7 mphRainLight Rain
6:50 PM42.8 °F39.2 °F87 %29.53 in1.9 miESE (110°)19.6 mphRainLight Rain
7:20 PM42.8 °F39.2 °F87 %29.53 in1.9 miESE (110°)19.6 mphRainLight Rain
7:50 PM42.8 °F39.2 °F87 %29.53 in2.2 miESE (110°)20.7 mphRainLight Rain
8:20 PM42.8 °F39.2 °F87 %29.53 in2.2 miESE (110°)19.6 mphRainLight Rain
8:50 PM41.0 °F39.2 °F93 %29.53 in2.2 miESE (110°)18.4 mphRainLight Rain
9:20 PM41.0 °F39.2 °F93 %29.56 in3.1 miESE (110°)18.4 mphRainLight Rain
9:50 PM42.8 °F39.2 °F87 %29.56 in3.1 miESE (110°)11.5 mphRainLight Rain
Hourly data recorded from EGAC, located miles away from Newtownnards, Northern Ireland







STORIES FROM OUR PARTNERS